Location: Barletta
(41.3170°N, 16.2830°E)
Time: 23:02:27
(UTC+01:00)

ISS - Visible Passes

Search period start: 18 January 2019 00:00
Search period end: 28 January 2019 00:00
Orbit: 404 x 410 km, 51.6° (Epoch: 18 January)

Date Brightness Start Highest point End Pass type
(mag) Time Alt. Az. Time Alt. Az. Time Alt. Az.
21 Jan -2.5 18:43:49 10° SSW 18:46:01 31° S 18:46:01 31° S visible
22 Jan -2.1 17:53:10 10° S 17:55:39 20° SE 17:57:08 15° E visible
22 Jan -1.0 19:28:46 10° WSW 19:29:52 19° W 19:29:52 19° W visible
23 Jan -3.9 18:37:15 10° SW 18:40:32 85° NW 18:40:53 70° NE visible
24 Jan -3.4 17:45:59 10° SW 17:49:11 50° SE 17:51:48 14° ENE visible
24 Jan -1.2 19:23:02 10° W 19:24:32 20° WNW 19:24:32 20° WNW visible
25 Jan -2.7 18:31:12 10° W 18:34:20 38° NNW 18:35:23 29° NNE visible
26 Jan -3.5 17:39:34 10° WSW 17:42:49 65° NNW 17:46:07 10° NE visible
26 Jan -1.2 19:17:31 10° WNW 19:18:52 16° NW 19:18:52 16° NW visible
27 Jan -1.9 18:25:30 10° WNW 18:28:12 22° NNW 18:29:36 17° NNE visible
